User: anonymous   Login
Location: Unspecified
(0.0000°N, 0.0000°E)
Time: 06:13:52
(UTC+00:00)
Language:

TRACE - Orbit

View from above orbital plane
View from above orbital plane
View from above satellite
View from above satellite

Ground track
Ground track

The orbit data is extracted from the following two-line orbital elements,

1 25280U 98020A   18203.55499976 +.00000523 +00000-0 +33311-4 0  9999
2 25280 097.4890 037.0411 0025190 090.3344 270.0774 15.12766412110646
Epoch (UTC): 22 July 2018 13:19:11
Eccentricity: 0.0025190
inclination: 97.4890°
perigee height: 510 km
apogee height: 545 km
right ascension of ascending node: 37.0411°
argument of perigee: 90.3344°
revolutions per day: 15.12766412
mean anomaly at epoch: 270.0774°
orbit number at epoch: 11064

The dashed part of the orbit path shows where the satellite is in the earth's shadow,  

DLR